Location: Azul
(36.7830°S, 59.8500°W)
Time: 03:00:14
(UTC-03:00)

ISS - Pass Details

Date: 14 October 2019
Orbit: 411 x 421 km, 51.6° (Epoch: 14 October)

Event Time Altitude Azimuth Distance (km) Brightness Sun altitude
Exits shadow 04:35:09 - 211° (SSW) 1,782 -0.6 -20.1°
Reaches altitude 10° 04:35:53 10° 204° (SSW) 1,531 -0.9 -19.9°
Maximum altitude 04:38:40 22° 150° (SSE) 981 -1.3 -19.4°
Drops below altitude 10° 04:41:27 10° 96° (E) 1,523 0.1 -18.9°
Sets 04:43:51 0° 80° (E) 2,383 1.0 -18.5°
